OpenBCM V1.13 (Linux)

Packet Radio Mailbox

DB0FHN

[JN59NK Nuernberg]

 Login: GUEST





  
I0OJJ  > KEPS     01.03.26 02:33l 308 Lines 14714 Bytes #999 (0) @ AMSAT
BID : ORB26060.1
Read: OE5RCO DJ6UX GUEST
Subj: 2Line Orbital Elements 26060.AMSAT
Path: DB0FHN<DB0RKB<DK0WUE<PD0LPM<PI8ZTM<CX2SA<EA2RCF<I0OJJ
Sent: 260301/0021z @:I0OJJ.ITA.EU [Rome] obcm1.13-38-g65b7
From: I0OJJ @ I0OJJ.ITA.EU (Gustavo)
To:   KEPS @ AMSAT
X-Info: This message was generated automatically


QST de W1STR

AMSAT Orbital Elements for Amateur Satellites in TLE Format
From Orbital Analysis Office
New England Sci-Tech STEM Education Center
Natick MA March 01, 2026
To all radio amateurs


These element sets describe the orbits of various satellites 
in use by the amateur radio community. For details see:
www.amsat.org/keplerian-elements-formats/

A daily update of element sets is available at:
www.amsat.org/tle/daily-bulletin.txt
or without bulletin text:
www.amsat.org/tle/dailytle.txt


AO-07
1 07530U 74089B   26059.62998862 -.00000019  00000-0  17241-3 0  9994
2 07530 101.9970  71.7223 0012051 339.6984 136.0539 12.53696186346914
UO-11
1 14781U 84021B   26059.47632273  .00001693  00000-0  17917-3 0  9999
2 14781  97.7929  26.3687 0007601 171.9484 188.1858 14.90465707240936
AO-27
1 22825U 93061C   26059.75658848  .00000116  00000-0  61347-4 0  9994
2 22825  98.7002 127.1593 0009317  62.9697 297.2435 14.30909540691490
FO-29
1 24278U 96046B   26059.47915064 -.00000020  00000-0  15680-4 0  9993
2 24278  98.5396 283.1440 0350222  18.6545 342.7067 13.53268267458469
GO-32
1 25397U 98043D   26059.46784765  .00000101  00000-0  63732-4 0  9996
2 25397  99.0016  49.5153 0001777 133.9582 226.1743 14.24403019435851
ISS
1 25544U 98067A   26059.41345909  .00009270  00000-0  18003-3 0  9990
2 25544  51.6325 118.2146 0008299 142.1568 218.0005 15.48358440554891
NO-44
1 26931U 01043C   26059.47816138  .00000167  00000-0  93341-4 0  9997
2 26931  67.0511 165.4350 0007006 265.3565  94.6737 14.31906351274880
SO-50
1 27607U 02058C   26059.44486005  .00001707  00000-0  21905-3 0  9995
2 27607  64.5511 105.3642 0075031 282.3430  76.9284 14.82738994248336
CO-55
1 27844U 03031E   26059.50135102  .00000380  00000-0  18347-3 0  9998
2 27844  98.6778  69.4143 0010373 136.6148 223.5849 14.24257055176206
CO-57
1 27848U 03031J   26059.43566059  .00000319  00000-0  15919-3 0  9997
2 27848  98.6808  69.1495 0009954 153.5684 206.6004 14.23553487175905
RS-22
1 27939U 03042A   26059.55767708  .00001622  00000-0  25936-3 0  9995
2 27939  98.3429 240.8649 0010216 251.6656 200.4960 14.73223060199559
CO-58
1 28895U 05043F   26059.40507292  .00002214  00000-0  35843-3 0  9990
2 28895  98.2810 212.8549 0014208 186.4797 173.6228 14.72269255 85746
CO-65
1 32785U 08021C   26059.89013276  .00007915  00000-0  51489-3 0  9996
2 32785  97.8181  39.2053 0010435  44.9346 315.2724 15.08214777968869
CO-66
1 32791U 08021J   26059.49621751  .00019439  00000-0  70033-3 0  9992
2 32791  97.7503  52.5476 0003028  25.8859 334.2531 15.28604342970668
RS-30
1 32953U 08025A   26059.85521574  .00000085  00000-0  53645-3 0  9995
2 32953  82.4989  62.8214 0019214 184.5769 175.5138 12.43175869806239
SRMSAT
1 37841U 11058D   26059.51876365  .00000444  00000-0  97327-4 0  9995
2 37841  19.9732 357.2092 0011890  88.9021  75.0380 14.11543504742443
ZACUBE-1
1 39417U 13066B   26059.85948976  .00005248  00000-0  41718-3 0  9991
2 39417  97.8179  21.6400 0041310 249.9670 109.7104 15.00211622664486
Delfi-N3xt
1 39428U 13066N   26059.83710976  .00007571  00000-0  68514-3 0  9992
2 39428  97.8347 340.3755 0075717 206.0378 153.7025 14.93503590658445
GOMX-1
1 39430U 13066Q   26059.83423617  .00002038  00000-0  31214-3 0  9998
2 39430  97.6581 267.0911 0130715  65.6878 295.7914 14.69056801654002
LO-74
1 39440U 13066AA  26059.85032616  .00006164  00000-0  58096-3 0  9997
2 39440  97.8795   8.5106 0059658  27.9956 332.4450 14.92817574660829
AO-73
1 39444U 13066AE  26059.81474031  .00008239  00000-0  53588-3 0  9994
2 39444  97.8157  29.2045 0036342 209.7024 150.2140 15.07706873663324
DTUSAT-2
1 40030U 14033W   26059.40306482  .00008552  00000-0  48380-3 0  9993
2 40030  98.0828  50.3781 0006275 240.0674 119.9933 15.13321353636222
EO-80
1 40032U 14033Y   26059.80454751  .00008942  00000-0  50352-3 0  9997
2 40032  98.0714  50.0926 0007616 169.8147 190.3238 15.13462327636261
LILACSAT-2
1 40908U 15049K   26059.85189744  .00018366  00000-0  35713-3 0  9994
2 40908  97.4826  92.7715 0005620 289.8713  70.1931 15.47641339578971
Horyu-4
1 41340U 16012D   26059.32895984  .00075479  00000-0  85458-3 0  9997
2 41340  30.9915 133.3928 0001624  43.1372 316.9407 15.61053299553647
Lapan A3
1 41603U 16040E   26059.88268689  .00004271  00000-0  13913-3 0  9996
2 41603  97.1471  59.6603 0011982  51.2320 308.9991 15.32285306538222
CAS-2T
1 41847U 16066G   26059.77114821  .00001613  00000-0  23325-3 0  9995
2 41847  98.3903 136.7190 0343854  98.4497 265.5819 14.44435791489147
TechnoSat
1 42829U 17042E   26059.44789368  .00004613  00000-0  33510-3 0  9999
2 42829  97.4134 221.3807 0019342 104.8995 255.4375 15.04186764470355
AO-91
1 43017U 17073E   26059.78621987  .00011350  00000-0  51554-3 0  9996
2 43017  97.4880 289.2706 0155941 342.9189  16.6824 15.10637422449014
S-Net D
1 43186U 18014G   26059.69518750  .00006518  00000-0  34749-3 0  9999
2 43186  97.5447 325.2047 0009738  42.9399 317.2591 15.15483327442328
S-Net B
1 43187U 18014H   26059.70458113  .00005990  00000-0  31982-3 0  9997
2 43187  97.5456 325.1970 0010266  38.5633 321.6331 15.15455906442326
S-Net A
1 43188U 18014J   26059.69457461  .00006575  00000-0  35036-3 0  9995
2 43188  97.5464 325.3762 0010189  38.8644 321.3319 15.15489761442325
S-Net C
1 43189U 18014K   26059.70788368  .00006030  00000-0  32191-3 0  9996
2 43189  97.5481 325.4472 0011417  31.5412 328.6502 15.15448725440879
Ten-Koh
1 43677U 18084G   26059.45109772  .00003330  00000-0  25617-3 0  9998
2 43677  98.0791 247.2506 0011124 120.4580 239.7744 15.02390998399832
PO-101
1 43678U 18084H   26059.51614478  .00000650  00000-0  57645-4 0  9999
2 43678  98.1042 251.1761 0010926 155.8082 204.3655 14.99901531399923
QO-100
1 43700U 18090A   26059.31123426  .00000127  00000-0  00000+0 0  9995
2 43700   0.0113 114.4014 0002616 257.8661 283.6696  1.00272756 26587
MinXSS-2
1 43758U 18099A   26059.74944024  .00031015  00000-0  78639-3 0  9996
2 43758  97.4657 133.4016 0007422 295.1854  64.8621 15.39619114397404
AO-95
1 43770U 18099N   26059.64953892  .00013064  00000-0  53923-3 0  9995
2 43770  97.4541 120.4235 0009133  19.3906 340.7677 15.24126406396670
SNUSat 2
1 43782U 18099AA  26059.64827312  .00009020  00000-0  42180-3 0  9995
2 43782  97.4220 114.7603 0009437 322.0895  37.9675 15.19959154396536
SnugLite
1 43784U 18099AC  26059.68177941  .00012492  00000-0  50996-3 0  9998
2 43784  97.4033 115.1491 0001792 340.5560  19.5609 15.24543156396776
ITASat 1
1 43786U 18099AE  26059.60944722  .00007756  00000-0  38935-3 0  9997
2 43786  97.4194 113.3226 0013170  18.7941 341.3777 15.17499578396437
EAGLET 1
1 43790U 18099AJ  26059.62050409  .00005358  00000-0  31534-3 0  9998
2 43790  97.4393 112.1517 0011288   9.1445 350.9989 15.11999224395925
ESEO
1 43792U 18099AL  26059.67290762  .00002282  00000-0  16979-3 0  9992
2 43792  97.4112 101.6521 0011862 349.3981  10.6993 15.03859112395495
JO-97
1 43803U 18099AX  26059.72689460  .00017933  00000-0  62111-3 0  9996
2 43803  97.4283 122.4056 0004683 298.7165  61.3605 15.29899179397024
Suomi 100
1 43804U 18099AY  26059.63274472  .00013985  00000-0  55056-3 0  9993
2 43804  97.4345 120.5632 0009073 307.1197  52.9211 15.25699258396852
ISAT
1 43879U 18111D   26059.75285548  .00055617  00000-0  99414-3 0  9993
2 43879  97.5901 348.0242 0005123  13.1251 347.0132 15.49828569394295
UWE-4
1 43880U 18111E   26059.77104997  .00032414  00000-0  83069-3 0  9994
2 43880  97.5856 343.7399 0009376  12.2669 347.8802 15.39267011394063
Sparrow
1 43881U 18111F   26059.79033517  .00066575  00000-0  10495-2 0  9993
2 43881  97.6116 352.3705 0006159  50.9431 309.2369 15.53309497394446
Prox-1
1 44339U 19036A   26059.44545148  .00015089  00000-0  15849-2 0  9991
2 44339  23.9955 119.1000 0006482 209.2845 150.7291 14.87712958357248
Taurus 1
1 44530U 19059C   26059.84973890  .00012075  00000-0  19898-2 0  9992
2 44530  98.6284 218.1293 0008224 286.7065  73.3237 14.70632325342716
TO-108
1 44881U 19093C   26059.86660627  .00000413  00000-0  52840-4 0  9991
2 44881  97.7634 134.7134 0015066  83.9700 276.3233 14.86314993335321
FloripaSat 1
1 44885U 19093G   26059.86029936  .00007577  00000-0  57326-3 0  9998
2 44885  97.7923 153.4234 0012743  79.5314 280.7346 15.02555512336379
RS-44
1 44909U 19096E   26059.49127993  .00000036  00000-0  94043-4 0  9990
2 44909  82.5183  51.9285 0218290  38.7741 322.8798 12.79747353288440
SALSAT
1 46495U 20068K   26059.50537060  .00009608  00000-0  35462-3 0  9998
2 46495  97.8843  56.1044 0009101 334.7223  25.3569 15.27962040298751
CSS (TIANHE-1)
1 48274U 21035A   26059.81940617  .00022887  00000-0  27560-3 0  9994
2 48274  41.4653 262.1182 0006332 217.0957 142.9444 15.60246270276227
CUTE
1 49263U 21088D   26059.79880235  .00039853  00000-0  39412-3 0  9997
2 49263  97.4242 151.5110 0003198 351.4429   8.6776 15.65770301245489
TeikyoSat 4
1 49396U 21102B   26059.32605578  .00001960  00000-0  12750-3 0  9999
2 49396  97.3810  92.9987 0010822 313.5161  46.5168 15.09063249236301
Z-Sat
1 49399U 21102E   26059.55216971  .00006294  00000-0  31803-3 0  9997
2 49399  97.3488  98.1619 0015079 266.1161  93.8349 15.17317603236960
KOSEN 1
1 49402U 21102H   26059.68692458  .00008230  00000-0  33059-3 0  9991
2 49402  97.3354 103.9912 0012999 225.8851 134.1318 15.25126235237474
HO-113
1 50466U 21131B   26059.82593792  .00000652  00000-0  21563-3 0  9999
2 50466  98.4967 152.8324 0005179  71.1596 289.0155 14.41237262219501
SNUGLITE 2
1 52899U 22065F   26059.65061594  .00001322  00000-0  26091-3 0  9995
2 52899  98.2013 204.7922 0007510  13.8921 346.2486 14.64099294195119
